STARLINK-32432, 61257

Orbit data source: Space-Track

STARLINK-32432, 61257 is a payload satellite owned by SpaceX/Seattle (US) in LEO that was launched on Wed, 25 Sep 2024 UTC via an FALCON 9 launch vehicle from the Air Force Western Test Range (AFWTR). Payload-class satellites include a variety of spacecraft equipped with specific instruments for various scientific and technological missions. These include communications satellites like Starlink; space stations such as the ISS; scientific satellites like the Hubble; Earth observation satellites from companies like Planet Labs, Umbra, and HawkEye 360; GPS; miniature CubeSats for education and research; and military/defense satellites.

Loading next visibility...
Identifier
61257, 2024-175Q
Orbit
LEO
Country
Flag of USUS
Related business
Manufacturer
SpaceX/Seattle
Mission
Operational Commercial Communications
Bus & Motor
STARLINK V2M, Unknown motor
Mass
730 kg wet, ~700 kg dry
Launch date (UTC)
2024-09-25 (2 years ago)
Launch vehicle
FALCON 9
Launch site
Air Force Western Test Range (AFWTR)
Object type
Payload
Rocket body
Debris
Shape & HBR
Box + 2 Pan, 17.7 m
Radar Cross Section
33.884 m², Large (>1 m²)

Expand to show TLE details & history
Last TLE update: 10 hours ago

TLE from 10 hours ago
0 STARLINK-32432
1 61257U 24175Q   26130.41571880 -.00000263  00000-0  32370-5 0  9998
2 61257  53.1612 267.3637 0001128  98.3511 261.7618 15.30197388 90908
Epoch: 2026-05-10T09:58Z
TLE epoch observation values (Epoch: 2026-05-10T09:58:38.104Z)
Latitude
0.00001°
Longitude
-110.51418°
Altitude
476.234 km
Speed
7.629 km/s
True Right ascension
17h 49m 27s
True Declination
0° 00' 00"
Sunlit
Object was in full shadow at epoch
Visualization orbit readout
Latitude
Unknown
Longitude
Unknown
Altitude
Unknown
Speed
Unknown
Apparent Right ascension
Unknown
Apparent Declination
Unknown
Sunlit
N/A
Visualization observer readout
Local Sidereal Time
04:36:37
Azimuth
Unknown
Elevation
Unknown
Doppler factor
Unknown
Orbital elements
Apogee altitude
476.252 km
Perigee altitude
474.706 km
Semi-major axis
6,853.616 km
Eccentricity
0.00011
Inclination
53.1612°
RAAN
267.3637°
Arg. of periapsis
98.3511°
True anomaly
261.74901°
Mean anomaly
261.7618°
Eccentric anomaly
261.7554°
Mean motion
3.82528 °/min
Orbital period
94.11 mins
BSTAR
0.000003237
Loading maneuver chart data...
Computing Atmospheric mass density...
Loading historical data...
Loading historical data...
Loading historical data...
Loading historical data...
Loading historical data...
Loading historical data...
Loading historical data...

Documentation

Showing up to 5 results
|